"datetime","temp","dp","rain_mm","uv","solar","mb","wind_mph","gust_mph","windchill","rh"
"2017-05-10 00:00:00",5.3,2.6,0.0,0.0,0,1014.8,0,0,"",83
"2017-05-10 00:01:00",5.2,2.5,0.0,0.0,0,1014.7,0,0,"",83
"2017-05-10 00:02:00",5.2,2.5,0.0,0.0,0,1014.7,0,0,"",83
"2017-05-10 00:03:00",5.2,2.5,0.0,0.0,0,1014.7,0,0,"",83
"2017-05-10 00:04:00",5.1,2.5,0.0,0.0,0,1014.7,0,0,"",83
"2017-05-10 00:05:00",5.1,2.5,0.0,0.0,0,1014.7,0,0,"",83
"2017-05-10 00:06:00",5.1,2.5,0.0,0.0,0,1014.7,0,0,"",83
"2017-05-10 00:07:00",5.1,2.5,0.0,0.0,0,1014.7,0,0,"",83
"2017-05-10 00:08:00",5.0,2.4,0.0,0.0,0,1014.6,0,0,"",83
"2017-05-10 00:09:00",5.0,2.4,0.0,0.0,0,1014.6,0,0,"",83
"2017-05-10 00:10:00",5.0,2.4,0.0,0.0,0,1014.6,0,0,"",83
"2017-05-10 00:11:00",4.9,2.3,0.0,0.0,0,1014.6,0,0,"",83
"2017-05-10 00:12:00",4.9,2.3,0.0,0.0,0,1014.6,0,0,"",83
"2017-05-10 00:13:00",4.9,2.4,0.0,0.0,0,1014.6,0,0,"",84
"2017-05-10 00:14:00",4.9,2.4,0.0,0.0,0,1014.6,0,0,"",84
"2017-05-10 00:15:00",4.8,2.3,0.0,0.0,0,1014.6,0,0,"",84
"2017-05-10 00:16:00",4.8,2.3,0.0,0.0,0,1014.5,0,0,"",84
"2017-05-10 00:17:00",4.8,2.3,0.0,0.0,0,1014.5,0,0,"",84
"2017-05-10 00:18:00",4.8,2.3,0.0,0.0,0,1014.5,0,0,"",84
"2017-05-10 00:19:00",4.8,2.3,0.0,0.0,0,1014.4,0,0,"",84
"2017-05-10 00:20:00",4.7,2.2,0.0,0.0,0,1014.4,0,0,"",84
"2017-05-10 00:21:00",4.7,2.2,0.0,0.0,0,1014.4,0,0,"",84
"2017-05-10 00:22:00",4.7,2.2,0.0,0.0,0,1014.4,0,0,"",84
"2017-05-10 00:23:00",4.7,2.2,0.0,0.0,0,1014.4,0,0,"",84
"2017-05-10 00:24:00",4.6,2.1,0.0,0.0,0,1014.4,0,0,"",84
"2017-05-10 00:25:00",4.6,2.1,0.0,0.0,0,1014.4,0,0,"",84
"2017-05-10 00:26:00",4.6,2.1,0.0,0.0,0,1014.4,0,0,"",84
"2017-05-10 00:27:00",4.5,2.0,0.0,0.0,0,1014.4,0,0,"",84
"2017-05-10 00:28:00",4.5,2.0,0.0,0.0,0,1014.4,0,0,"",84
"2017-05-10 00:29:00",4.4,1.9,0.0,0.0,0,1014.4,0,0,"",84
"2017-05-10 00:30:00",4.4,1.9,0.0,0.0,0,1014.4,0,0,"",84
"2017-05-10 00:31:00",4.4,1.9,0.0,0.0,0,1014.3,0,0,"",84
"2017-05-10 00:32:00",4.4,2.1,0.0,0.0,0,1014.4,0,0,"",85
"2017-05-10 00:33:00",4.3,2.0,0.0,0.0,0,1014.4,0,0,"",85
"2017-05-10 00:34:00",4.3,2.0,0.0,0.0,0,1014.3,0,0,"",85
"2017-05-10 00:35:00",4.3,2.0,0.0,0.0,0,1014.4,0,0,"",85
"2017-05-10 00:36:00",4.3,2.0,0.0,0.0,0,1014.3,0,0,"",85
"2017-05-10 00:37:00",4.3,2.0,0.0,0.0,0,1014.3,0,0,"",85
"2017-05-10 00:38:00",4.2,1.9,0.0,0.0,0,1014.3,0,0,"",85
"2017-05-10 00:39:00",4.2,1.9,0.0,0.0,0,1014.4,0,0,"",85
"2017-05-10 00:40:00",4.2,1.9,0.0,0.0,0,1014.3,0,0,"",85
"2017-05-10 00:41:00",4.2,1.9,0.0,0.0,0,1014.3,0,0,"",85
"2017-05-10 00:42:00",4.1,1.8,0.0,0.0,0,1014.3,0,0,"",85
"2017-05-10 00:43:00",4.1,1.8,0.0,0.0,0,1014.3,0,0,"",85
"2017-05-10 00:44:00",4.1,1.8,0.0,0.0,0,1014.3,0,0,"",85
"2017-05-10 00:45:00",4.1,1.8,0.0,0.0,0,1014.2,0,0,"",85
"2017-05-10 00:46:00",4.0,1.7,0.0,0.0,0,1014.2,0,0,"",85
"2017-05-10 00:47:00",4.0,1.7,0.0,0.0,0,1014.2,0,0,"",85
"2017-05-10 00:48:00",3.9,1.6,0.0,0.0,0,1014.2,0,0,"",85
"2017-05-10 00:49:00",3.9,1.6,0.0,0.0,0,1014.2,0,0,"",85
"2017-05-10 00:50:00",3.9,1.6,0.0,0.0,0,1014.2,0,0,"",85
"2017-05-10 00:51:00",3.9,1.8,0.0,0.0,0,1014.2,0,0,"",86
"2017-05-10 00:52:00",3.9,1.8,0.0,0.0,0,1014.2,0,0,"",86
"2017-05-10 00:53:00",3.8,1.7,0.0,0.0,0,1014.2,0,0,"",86
"2017-05-10 00:54:00",3.8,1.7,0.0,0.0,0,1014.2,0,0,"",86
"2017-05-10 00:55:00",3.8,1.7,0.0,0.0,0,1014.2,0,0,"",86
"2017-05-10 00:56:00",3.8,1.7,0.0,0.0,0,1014.2,0,0,"",86
"2017-05-10 00:57:00",3.8,1.7,0.0,0.0,0,1014.2,0,0,"",86
"2017-05-10 00:58:00",3.8,1.7,0.0,0.0,0,1014.2,0,0,"",86
"2017-05-10 00:59:00",3.7,1.6,0.0,0.0,0,1014.2,0,0,"",86
"2017-05-10 01:00:00",3.7,1.6,0.0,0.0,0,1014.2,0,0,"",86
"2017-05-10 01:01:00",3.7,1.6,0.0,0.0,0,1014.1,0,0,"",86
"2017-05-10 01:02:00",3.7,1.6,0.0,0.0,0,1014.1,0,0,"",86
"2017-05-10 01:03:00",3.7,1.6,0.0,0.0,0,1014.1,0,0,"",86
"2017-05-10 01:04:00",3.6,1.5,0.0,0.0,0,1014.1,0,0,"",86
"2017-05-10 01:05:00",3.6,1.5,0.0,0.0,0,1014.1,0,0,"",86
"2017-05-10 01:06:00",3.6,1.5,0.0,0.0,0,1014.0,0,0,"",86
"2017-05-10 01:07:00",3.6,1.5,0.0,0.0,0,1014.0,0,0,"",86
"2017-05-10 01:08:00",3.5,1.4,0.0,0.0,0,1014.1,0,0,"",86
"2017-05-10 01:09:00",3.5,1.4,0.0,0.0,0,1014.0,0,0,"",86
"2017-05-10 01:10:00",3.5,1.4,0.0,0.0,0,1014.0,0,0,"",86
"2017-05-10 01:11:00",3.4,1.3,0.0,0.0,0,1014.0,0,0,"",86
"2017-05-10 01:12:00",3.4,1.3,0.0,0.0,0,1013.9,0,0,"",86
"2017-05-10 01:13:00",3.4,1.4,0.0,0.0,0,1013.9,0,0,"",87
"2017-05-10 01:14:00",3.4,1.4,0.0,0.0,0,1013.9,0,0,"",87
"2017-05-10 01:15:00",3.4,1.4,0.0,0.0,0,1013.9,0,0,"",87
"2017-05-10 01:16:00",3.4,1.4,0.0,0.0,0,1013.9,0,0,"",87
"2017-05-10 01:17:00",3.3,1.3,0.0,0.0,0,1013.9,0,0,"",87
"2017-05-10 01:18:00",3.3,1.3,0.0,0.0,0,1013.9,0,0,"",87
"2017-05-10 01:19:00",3.3,1.3,0.0,0.0,0,1013.9,0,0,"",87
"2017-05-10 01:20:00",3.3,1.3,0.0,0.0,0,1014.0,0,0,"",87
"2017-05-10 01:21:00",3.3,1.3,0.0,0.0,0,1013.9,0,0,"",87
"2017-05-10 01:22:00",3.2,1.2,0.0,0.0,0,1013.9,0,0,"",87
"2017-05-10 01:23:00",3.2,1.2,0.0,0.0,0,1014.0,0,0,"",87
"2017-05-10 01:24:00",3.2,1.2,0.0,0.0,0,1014.0,0,0,"",87
"2017-05-10 01:25:00",3.2,1.2,0.0,0.0,0,1013.9,0,0,"",87
"2017-05-10 01:26:00",3.2,1.2,0.0,0.0,0,1014.0,0,0,"",87
"2017-05-10 01:27:00",3.1,1.1,0.0,0.0,0,1014.0,0,0,"",87
"2017-05-10 01:28:00",3.1,1.1,0.0,0.0,0,1014.0,0,0,"",87
"2017-05-10 01:29:00",3.1,1.1,0.0,0.0,0,1014.0,0,0,"",87
"2017-05-10 01:30:00",3.1,1.1,0.0,0.0,0,1014.0,0,0,"",87
"2017-05-10 01:31:00",3.1,1.1,0.0,0.0,0,1013.9,0,0,"",87
"2017-05-10 01:32:00",3.1,1.1,0.0,0.0,0,1013.9,0,0,"",87
"2017-05-10 01:33:00",3.1,1.1,0.0,0.0,0,1013.9,0,0,"",87
"2017-05-10 01:34:00",3.1,1.1,0.0,0.0,0,1013.9,0,0,"",87
"2017-05-10 01:35:00",3.0,1.0,0.0,0.0,0,1013.9,0,0,"",87
"2017-05-10 01:36:00",3.0,1.0,0.0,0.0,0,1013.9,0,0,"",87
"2017-05-10 01:37:00",3.0,1.0,0.0,0.0,0,1013.9,0,0,"",87
"2017-05-10 01:38:00",2.9,0.9,0.0,0.0,0,1013.9,0,0,"",87
"2017-05-10 01:39:00",2.9,0.9,0.0,0.0,0,1013.8,0,0,"",87
"2017-05-10 01:40:00",2.9,0.9,0.0,0.0,0,1013.8,0,0,"",87
"2017-05-10 01:41:00",2.9,0.9,0.0,0.0,0,1013.8,0,0,"",87
"2017-05-10 01:42:00",2.9,0.9,0.0,0.0,0,1013.9,0,0,"",87
"2017-05-10 01:43:00",2.9,0.9,0.0,0.0,0,1013.8,0,0,"",87
"2017-05-10 01:44:00",2.8,0.9,0.0,0.0,0,1013.8,0,0,"",87
"2017-05-10 01:45:00",2.8,0.9,0.0,0.0,0,1013.8,0,0,"",87
"2017-05-10 01:46:00",2.8,0.9,0.0,0.0,0,1013.8,0,0,"",87
"2017-05-10 01:47:00",2.8,0.9,0.0,0.0,0,1013.8,0,0,"",87
"2017-05-10 01:48:00",2.8,0.9,0.0,0.0,0,1013.8,0,0,"",87
"2017-05-10 01:49:00",2.8,0.9,0.0,0.0,0,1013.8,0,0,"",87
"2017-05-10 01:50:00",2.7,0.8,0.0,0.0,0,1013.8,0,0,"",87
"2017-05-10 01:51:00",2.7,0.8,0.0,0.0,0,1013.8,0,0,"",87
"2017-05-10 01:52:00",2.7,0.8,0.0,0.0,0,1013.8,0,0,"",87
"2017-05-10 01:53:00",2.7,0.8,0.0,0.0,0,1013.8,0,0,"",87
"2017-05-10 01:54:00",2.7,0.8,0.0,0.0,0,1013.8,0,0,"",87
"2017-05-10 01:55:00",2.7,0.8,0.0,0.0,0,1013.7,0,0,"",87
"2017-05-10 01:56:00",2.7,0.8,0.0,0.0,0,1013.7,0,0,"",87
"2017-05-10 01:57:00",2.6,0.8,0.0,0.0,0,1013.7,0,0,"",88
"2017-05-10 01:58:00",2.6,0.8,0.0,0.0,0,1013.7,0,0,"",88
"2017-05-10 01:59:00",2.6,0.8,0.0,0.0,0,1013.7,0,0,"",88
"2017-05-10 02:00:00",2.6,0.8,0.0,0.0,0,1013.7,0,0,"",88
"2017-05-10 02:01:00",2.6,0.8,0.0,0.0,0,1013.7,0,0,"",88
"2017-05-10 02:02:00",2.6,0.8,0.0,0.0,0,1013.7,0,0,"",88
"2017-05-10 02:03:00",2.5,0.7,0.0,0.0,0,1013.7,0,0,"",88
"2017-05-10 02:04:00",2.6,0.8,0.0,0.0,0,1013.6,0,0,"",88
"2017-05-10 02:05:00",2.5,0.7,0.0,0.0,0,1013.6,0,0,"",88
"2017-05-10 02:06:00",2.5,0.7,0.0,0.0,0,1013.6,0,0,"",88
"2017-05-10 02:07:00",2.4,0.6,0.0,0.0,0,1013.5,0,0,"",88
"2017-05-10 02:08:00",2.4,0.6,0.0,0.0,0,1013.5,0,0,"",88
"2017-05-10 02:09:00",2.4,0.6,0.0,0.0,0,1013.5,0,0,"",88
"2017-05-10 02:10:00",2.4,0.6,0.0,0.0,0,1013.5,0,0,"",88
"2017-05-10 02:11:00",2.4,0.6,0.0,0.0,0,1013.5,0,0,"",88
"2017-05-10 02:12:00",2.4,0.6,0.0,0.0,0,1013.5,0,0,"",88
"2017-05-10 02:13:00",2.4,0.6,0.0,0.0,0,1013.4,0,0,"",88
"2017-05-10 02:14:00",2.4,0.6,0.0,0.0,0,1013.5,0,0,"",88
"2017-05-10 02:15:00",2.3,0.5,0.0,0.0,0,1013.4,0,0,"",88
"2017-05-10 02:16:00",2.3,0.5,0.0,0.0,0,1013.4,0,0,"",88
"2017-05-10 02:17:00",2.3,0.5,0.0,0.0,0,1013.4,0,0,"",88
"2017-05-10 02:18:00",2.3,0.5,0.0,0.0,0,1013.4,0,0,"",88
"2017-05-10 02:19:00",2.3,0.5,0.0,0.0,0,1013.4,0,0,"",88
"2017-05-10 02:20:00",2.3,0.5,0.0,0.0,0,1013.4,0,0,"",88
"2017-05-10 02:21:00",2.3,0.5,0.0,0.0,0,1013.3,0,0,"",88
"2017-05-10 02:22:00",2.3,0.5,0.0,0.0,0,1013.3,0,0,"",88
"2017-05-10 02:23:00",2.2,0.4,0.0,0.0,0,1013.3,0,0,"",88
"2017-05-10 02:24:00",2.2,0.4,0.0,0.0,0,1013.3,0,0,"",88
"2017-05-10 02:25:00",2.2,0.4,0.0,0.0,0,1013.3,0,0,"",88
"2017-05-10 02:26:00",2.2,0.4,0.0,0.0,0,1013.2,0,0,"",88
"2017-05-10 02:27:00",2.2,0.4,0.0,0.0,0,1013.3,0,0,"",88
"2017-05-10 02:28:00",2.2,0.4,0.0,0.0,0,1013.3,0,0,"",88
"2017-05-10 02:29:00",2.2,0.4,0.0,0.0,0,1013.2,0,0,"",88
"2017-05-10 02:30:00",2.2,0.4,0.0,0.0,0,1013.3,0,0,"",88
"2017-05-10 02:31:00",2.1,0.5,0.0,0.0,0,1013.2,0,0,"",89
"2017-05-10 02:32:00",2.1,0.5,0.0,0.0,0,1013.2,0,0,"",89
"2017-05-10 02:33:00",2.1,0.5,0.0,0.0,0,1013.2,0,0,"",89
"2017-05-10 02:34:00",2.1,0.3,0.0,0.0,0,1013.2,0,0,"",88
"2017-05-10 02:35:00",2.1,0.3,0.0,0.0,0,1013.2,0,0,"",88
"2017-05-10 02:36:00",2.1,0.3,0.0,0.0,0,1013.2,0,0,"",88
"2017-05-10 02:37:00",2.0,0.2,0.0,0.0,0,1013.2,0,0,"",88
"2017-05-10 02:38:00",2.0,0.2,0.0,0.0,0,1013.2,0,0,"",88
"2017-05-10 02:39:00",2.0,0.4,0.0,0.0,0,1013.2,0,0,"",89
"2017-05-10 02:40:00",2.0,0.4,0.0,0.0,0,1013.2,0,0,"",89
"2017-05-10 02:41:00",2.0,0.4,0.0,0.0,0,1013.2,0,0,"",89
"2017-05-10 02:42:00",1.9,0.3,0.0,0.0,0,1013.2,0,0,"",89
"2017-05-10 02:43:00",1.9,0.3,0.0,0.0,0,1013.2,0,0,"",89
"2017-05-10 02:44:00",1.9,0.3,0.0,0.0,0,1013.2,0,0,"",89
"2017-05-10 02:45:00",1.9,0.3,0.0,0.0,0,1013.3,0,0,"",89
"2017-05-10 02:46:00",1.9,0.3,0.0,0.0,0,1013.3,0,0,"",89
"2017-05-10 02:47:00",1.9,0.3,0.0,0.0,0,1013.3,0,0,"",89
"2017-05-10 02:48:00",1.9,0.3,0.0,0.0,0,1013.3,0,0,"",89
"2017-05-10 02:49:00",1.8,0.2,0.0,0.0,0,1013.3,0,0,"",89
"2017-05-10 02:50:00",1.8,0.2,0.0,0.0,0,1013.3,0,0,"",89
"2017-05-10 02:51:00",1.8,0.2,0.0,0.0,0,1013.3,0,0,"",89
"2017-05-10 02:52:00",1.8,0.2,0.0,0.0,0,1013.3,0,0,"",89
"2017-05-10 02:53:00",1.8,0.2,0.0,0.0,0,1013.3,0,0,"",89
"2017-05-10 02:54:00",1.8,0.2,0.0,0.0,0,1013.3,0,0,"",89
"2017-05-10 02:55:00",1.8,0.2,0.0,0.0,0,1013.3,0,0,"",89
"2017-05-10 02:56:00",1.7,0.1,0.0,0.0,0,1013.2,0,0,"",89
"2017-05-10 02:57:00",1.7,0.1,0.0,0.0,0,1013.2,0,0,"",89
"2017-05-10 02:58:00",1.7,0.1,0.0,0.0,0,1013.2,0,0,"",89
"2017-05-10 02:59:00",1.7,0.1,0.0,0.0,0,1013.2,0,0,"",89
"2017-05-10 03:00:00",1.7,0.1,0.0,0.0,0,1013.2,0,0,"",89
"2017-05-10 03:01:00",1.7,0.1,0.0,0.0,0,1013.2,0,0,"",89
"2017-05-10 03:02:00",1.7,0.1,0.0,0.0,0,1013.2,0,0,"",89
"2017-05-10 03:03:00",1.7,0.1,0.0,0.0,0,1013.2,0,0,"",89
"2017-05-10 03:04:00",1.7,0.1,0.0,0.0,0,1013.3,0,0,"",89
"2017-05-10 03:05:00",1.6,0.0,0.0,0.0,0,1013.3,0,0,"",89
"2017-05-10 03:06:00",1.6,0.0,0.0,0.0,0,1013.3,0,0,"",89
"2017-05-10 03:07:00",1.6,0.0,0.0,0.0,0,1013.3,0,0,"",89
"2017-05-10 03:08:00",1.6,0.0,0.0,0.0,0,1013.2,0,0,"",89
"2017-05-10 03:09:00",1.6,0.0,0.0,0.0,0,1013.3,0,0,"",89
"2017-05-10 03:10:00",1.6,0.0,0.0,0.0,0,1013.3,0,0,"",89
"2017-05-10 03:11:00",1.6,0.0,0.0,0.0,0,1013.2,0,0,"",89
"2017-05-10 03:12:00",1.6,0.0,0.0,0.0,0,1013.2,0,0,"",89
"2017-05-10 03:13:00",1.5,"-0.1",0.0,0.0,0,1013.2,0,0,"",89
"2017-05-10 03:14:00",1.5,"-0.1",0.0,0.0,0,1013.2,0,0,"",89
"2017-05-10 03:15:00",1.5,"-0.1",0.0,0.0,0,1013.1,0,0,"",89
"2017-05-10 03:16:00",1.5,"-0.1",0.0,0.0,0,1013.1,0,0,"",89
"2017-05-10 03:17:00",1.5,"-0.1",0.0,0.0,0,1013.1,0,0,"",89
"2017-05-10 03:18:00",1.4,"-0.2",0.0,0.0,0,1013.1,0,0,"",89
"2017-05-10 03:19:00",1.4,"-0.2",0.0,0.0,0,1013.0,0,0,"",89
"2017-05-10 03:20:00",1.4,"-0.2",0.0,0.0,0,1013.0,0,0,"",89
"2017-05-10 03:21:00",1.4,"-0.2",0.0,0.0,0,1013.0,0,0,"",89
"2017-05-10 03:22:00",1.4,"-0.2",0.0,0.0,0,1013.0,0,0,"",89
"2017-05-10 03:23:00",1.4,"-0.2",0.0,0.0,0,1013.0,0,0,"",89
"2017-05-10 03:24:00",1.4,"-0.2",0.0,0.0,0,1013.0,0,0,"",89
"2017-05-10 03:25:00",1.4,"-0.2",0.0,0.0,0,1013.0,0,0,"",89
"2017-05-10 03:26:00",1.3,"-0.3",0.0,0.0,0,1013.0,0,0,"",89
"2017-05-10 03:27:00",1.3,"-0.3",0.0,0.0,0,1013.0,0,0,"",89
"2017-05-10 03:28:00",1.3,"-0.3",0.0,0.0,0,1013.0,0,0,"",89
"2017-05-10 03:29:00",1.3,"-0.3",0.0,0.0,0,1013.0,0,0,"",89
"2017-05-10 03:30:00",1.3,"-0.3",0.0,0.0,0,1012.9,0,0,"",89
"2017-05-10 03:31:00",1.3,"-0.3",0.0,0.0,0,1012.9,0,0,"",89
"2017-05-10 03:32:00",1.3,"-0.3",0.0,0.0,0,1012.9,0,0,"",89
"2017-05-10 03:33:00",1.3,"-0.3",0.0,0.0,0,1012.9,0,0,"",89
"2017-05-10 03:34:00",1.2,"-0.4",0.0,0.0,0,1012.9,0,0,"",89
"2017-05-10 03:35:00",1.2,"-0.4",0.0,0.0,0,1012.9,0,0,"",89
"2017-05-10 03:36:00",1.2,"-0.4",0.0,0.0,0,1012.9,0,0,"",89
"2017-05-10 03:37:00",1.2,"-0.4",0.0,0.0,0,1012.9,0,0,"",89
"2017-05-10 03:38:00",1.2,"-0.4",0.0,0.0,0,1012.9,0,0,"",89
"2017-05-10 03:39:00",1.2,"-0.4",0.0,0.0,0,1012.9,0,0,"",89
"2017-05-10 03:40:00",1.2,"-0.4",0.0,0.0,0,1012.8,0,0,"",89
"2017-05-10 03:41:00",1.2,"-0.4",0.0,0.0,0,1012.9,0,0,"",89
"2017-05-10 03:42:00",1.2,"-0.4",0.0,0.0,0,1012.8,0,0,"",89
"2017-05-10 03:43:00",1.1,"-0.5",0.0,0.0,0,1012.8,0,0,"",89
"2017-05-10 03:44:00",1.1,"-0.5",0.0,0.0,0,1012.8,0,0,"",89
"2017-05-10 03:45:00",1.1,"-0.5",0.0,0.0,0,1012.7,0,0,"",89
"2017-05-10 03:46:00",1.1,"-0.5",0.0,0.0,0,1012.7,0,0,"",89
"2017-05-10 03:47:00",1.1,"-0.5",0.0,0.0,0,1012.7,0,0,"",89
"2017-05-10 03:48:00",1.1,"-0.5",0.0,0.0,0,1012.7,0,0,"",89
"2017-05-10 03:49:00",1.1,"-0.4",0.0,0.0,0,1012.7,0,0,"",90
"2017-05-10 03:50:00",1.1,"-0.4",0.0,0.0,0,1012.7,0,0,"",90
"2017-05-10 03:51:00",1.1,"-0.4",0.0,0.0,0,1012.7,0,0,"",90
"2017-05-10 03:52:00",1.1,"-0.4",0.0,0.0,0,1012.7,0,0,"",90
"2017-05-10 03:53:00",1.1,"-0.4",0.0,0.0,0,1012.6,0,0,"",90
"2017-05-10 03:54:00",1.1,"-0.4",0.0,0.0,0,1012.6,0,0,"",90
"2017-05-10 03:55:00",1.0,"-0.5",0.0,0.0,0,1012.6,0,0,"",90
"2017-05-10 03:56:00",1.0,"-0.5",0.0,0.0,0,1012.6,0,0,"",90
"2017-05-10 03:57:00",1.0,"-0.5",0.0,0.0,0,1012.6,0,0,"",90
"2017-05-10 03:58:00",1.0,"-0.5",0.0,0.0,0,1012.6,0,0,"",90
"2017-05-10 03:59:00",1.0,"-0.5",0.0,0.0,0,1012.6,0,0,"",90
"2017-05-10 04:00:00",0.9,"-0.6",0.0,0.0,0,1012.5,0,0,"",90
"2017-05-10 04:01:00",0.9,"-0.6",0.0,0.0,0,1012.5,0,0,"",90
"2017-05-10 04:02:00",0.9,"-0.6",0.0,0.0,0,1012.5,0,0,"",90
"2017-05-10 04:03:00",0.9,"-0.6",0.0,0.0,0,1012.6,0,0,"",90
"2017-05-10 04:04:00",0.9,"-0.6",0.0,0.0,0,1012.5,0,0,"",90
"2017-05-10 04:05:00",0.9,"-0.6",0.0,0.0,0,1012.4,0,0,"",90
"2017-05-10 04:06:00",0.9,"-0.6",0.0,0.0,0,1012.5,0,0,"",90
"2017-05-10 04:07:00",0.9,"-0.6",0.0,0.0,0,1012.4,0,0,"",90
"2017-05-10 04:08:00",0.9,"-0.6",0.0,0.0,0,1012.4,0,0,"",90
"2017-05-10 04:09:00",0.9,"-0.6",0.0,0.0,0,1012.4,0,0,"",90
"2017-05-10 04:10:00",0.9,"-0.6",0.0,0.0,0,1012.4,0,0,"",90
"2017-05-10 04:11:00",0.9,"-0.6",0.0,0.0,0,1012.4,0,0,"",90
"2017-05-10 04:12:00",0.8,"-0.7",0.0,0.0,0,1012.4,0,0,"",90
"2017-05-10 04:13:00",0.8,"-0.7",0.0,0.0,0,1012.4,0,0,"",90
"2017-05-10 04:14:00",0.8,"-0.7",0.0,0.0,0,1012.4,0,0,"",90
"2017-05-10 04:15:00",0.8,"-0.7",0.0,0.0,0,1012.4,0,0,"",90
"2017-05-10 04:16:00",0.8,"-0.7",0.0,0.0,0,1012.3,0,0,"",90
"2017-05-10 04:17:00",0.8,"-0.7",0.0,0.0,0,1012.3,0,0,"",90
"2017-05-10 04:18:00",0.8,"-0.7",0.0,0.0,0,1012.4,0,0,"",90
"2017-05-10 04:19:00",0.8,"-0.7",0.0,0.0,0,1012.3,0,0,"",90
"2017-05-10 04:20:00",0.8,"-0.7",0.0,0.0,0,1012.3,0,0,"",90
"2017-05-10 04:21:00",0.7,"-0.8",0.0,0.0,0,1012.3,0,0,"",90
"2017-05-10 04:22:00",0.7,"-0.8",0.0,0.0,0,1012.3,0,0,"",90
"2017-05-10 04:23:00",0.7,"-0.8",0.0,0.0,0,1012.2,0,0,"",90
"2017-05-10 04:24:00",0.7,"-0.8",0.0,0.0,0,1012.2,0,0,"",90
"2017-05-10 04:25:00",0.7,"-0.8",0.0,0.0,0,1012.2,0,0,"",90
"2017-05-10 04:26:00",0.7,"-0.8",0.0,0.0,0,1012.2,0,0,"",90
"2017-05-10 04:27:00",0.7,"-0.8",0.0,0.0,0,1012.2,0,0,"",90
"2017-05-10 04:28:00",0.7,"-0.8",0.0,0.0,0,1012.2,0,0,"",90
"2017-05-10 04:29:00",0.7,"-0.8",0.0,0.0,0,1012.2,0,0,"",90
"2017-05-10 04:30:00",0.7,"-0.8",0.0,0.0,0,1012.2,0,0,"",90
"2017-05-10 04:31:00",0.7,"-0.8",0.0,0.0,0,1012.1,0,0,"",90
"2017-05-10 04:32:00",0.6,"-0.9",0.0,0.0,0,1012.1,0,0,"",90
"2017-05-10 04:33:00",0.6,"-0.9",0.0,0.0,0,1012.1,0,0,"",90
"2017-05-10 04:34:00",0.6,"-0.9",0.0,0.0,0,1012.1,0,0,"",90
"2017-05-10 04:35:00",0.6,"-0.9",0.0,0.0,0,1012.1,0,0,"",90
"2017-05-10 04:36:00",0.6,"-0.9",0.0,0.0,0,1012.0,0,0,"",90
"2017-05-10 04:37:00",0.6,"-0.9",0.0,0.0,0,1012.0,0,0,"",90
"2017-05-10 04:38:00",0.6,"-0.9",0.0,0.0,0,1011.9,0,0,"",90
"2017-05-10 04:39:00",0.6,"-0.9",0.0,0.0,0,1012.0,0,0,"",90
"2017-05-10 04:40:00",0.6,"-0.9",0.0,0.0,0,1012.0,0,0,"",90
"2017-05-10 04:41:00",0.6,"-0.9",0.0,0.0,0,1011.9,0,0,"",90
"2017-05-10 04:42:00",0.6,"-0.9",0.0,0.0,0,1011.9,0,0,"",90
"2017-05-10 04:43:00",0.6,"-0.9",0.0,0.0,0,1011.9,0,0,"",90
"2017-05-10 04:44:00",0.5,"-1.0",0.0,0.0,0,1011.9,0,0,"",90
"2017-05-10 04:45:00",0.5,"-1.0",0.0,0.0,0,1011.9,0,0,"",90
"2017-05-10 04:46:00",0.5,"-1.0",0.0,0.0,0,1011.9,0,0,"",90
"2017-05-10 04:47:00",0.5,"-1.0",0.0,0.0,0,1011.9,0,0,"",90
"2017-05-10 04:48:00",0.5,"-1.0",0.0,0.0,0,1011.9,0,0,"",90
"2017-05-10 04:49:00",0.4,"-1.0",0.0,0.0,0,1011.9,0,0,"",90
"2017-05-10 04:50:00",0.4,"-1.0",0.0,0.0,0,1011.8,0,0,"",90
"2017-05-10 04:51:00",0.4,"-1.0",0.0,0.0,0,1011.8,0,0,"",90
"2017-05-10 04:52:00",0.4,"-1.0",0.0,0.0,0,1011.8,0,0,"",90
"2017-05-10 04:53:00",0.4,"-1.0",0.0,0.0,0,1011.8,0,0,"",90
"2017-05-10 04:54:00",0.4,"-1.0",0.0,0.0,0,1011.8,0,0,"",90
"2017-05-10 04:55:00",0.4,"-1.0",0.0,0.0,0,1011.8,0,0,"",90
"2017-05-10 04:56:00",0.4,"-1.0",0.0,0.0,0,1011.8,0,0,"",90
"2017-05-10 04:57:00",0.4,"-1.0",0.0,0.0,0,1011.8,0,0,"",90
"2017-05-10 04:58:00",0.4,"-1.0",0.0,0.0,0,1011.8,0,0,"",90
"2017-05-10 04:59:00",0.4,"-1.0",0.0,0.0,0,1011.8,0,0,"",90
"2017-05-10 05:00:00",0.4,"-1.0",0.0,0.0,0,1011.8,0,0,"",90
"2017-05-10 05:01:00",0.4,"-1.0",0.0,0.0,0,1011.8,0,0,"",90
"2017-05-10 05:02:00",0.4,"-1.0",0.0,0.0,0,1011.8,0,0,"",90
"2017-05-10 05:03:00",0.4,"-1.0",0.0,0.0,0,1011.8,0,0,"",90
"2017-05-10 05:04:00",0.3,"-1.1",0.0,0.0,0,1011.8,0,1,"",90
"2017-05-10 05:05:00",0.3,"-1.1",0.0,0.0,0,1011.7,0,0,"",90
"2017-05-10 05:06:00",0.3,"-1.1",0.0,0.0,0,1011.8,0,0,"",90
"2017-05-10 05:07:00",0.3,"-1.1",0.0,0.0,0,1011.8,0,0,"",90
"2017-05-10 05:08:00",0.3,"-1.1",0.0,0.0,0,1011.7,0,0,"",90
"2017-05-10 05:09:00",0.3,"-1.1",0.0,0.0,0,1011.7,0,0,"",90
"2017-05-10 05:10:00",0.3,"-1.1",0.0,0.0,0,1011.7,0,0,"",90
"2017-05-10 05:11:00",0.3,"-1.1",0.0,0.0,0,1011.7,0,0,"",90
"2017-05-10 05:12:00",0.3,"-1.1",0.0,0.0,0,1011.6,0,0,"",90
"2017-05-10 05:13:00",0.3,"-1.1",0.0,0.0,0,1011.6,0,0,"",90
"2017-05-10 05:14:00",0.3,"-1.1",0.0,0.0,0,1011.6,0,0,"",90
"2017-05-10 05:15:00",0.3,"-1.1",0.0,0.0,0,1011.5,0,0,"",90
"2017-05-10 05:16:00",0.3,"-1.0",0.0,0.0,0,1011.5,0,0,"",91
"2017-05-10 05:17:00",0.3,"-1.0",0.0,0.0,0,1011.5,0,0,"",91
"2017-05-10 05:18:00",0.2,"-1.1",0.0,0.0,0,1011.5,0,0,"",91
"2017-05-10 05:19:00",0.2,"-1.1",0.0,0.0,0,1011.5,0,0,"",91
"2017-05-10 05:20:00",0.3,"-1.0",0.0,0.0,0,1011.5,0,0,"",91
"2017-05-10 05:21:00",0.2,"-1.1",0.0,0.0,0,1011.5,0,0,"",91
"2017-05-10 05:22:00",0.2,"-1.1",0.0,0.0,0,1011.4,0,0,"",91
"2017-05-10 05:23:00",0.2,"-1.1",0.0,0.0,0,1011.5,0,0,"",91
"2017-05-10 05:24:00",0.2,"-1.2",0.0,0.0,0,1011.5,0,0,"",90
"2017-05-10 05:25:00",0.2,"-1.2",0.0,0.0,0,1011.5,0,0,"",90
"2017-05-10 05:26:00",0.2,"-1.2",0.0,0.0,0,1011.5,0,0,"",90
"2017-05-10 05:27:00",0.2,"-1.2",0.0,0.0,0,1011.4,0,0,"",90
"2017-05-10 05:28:00",0.2,"-1.2",0.0,0.0,0,1011.4,0,0,"",90
"2017-05-10 05:29:00",0.2,"-1.1",0.0,0.0,0,1011.4,0,0,"",91
"2017-05-10 05:30:00",0.2,"-1.1",0.0,0.0,0,1011.4,0,0,"",91
"2017-05-10 05:31:00",0.2,"-1.1",0.0,0.0,5,1011.4,0,0,"",91
"2017-05-10 05:32:00",0.2,"-1.1",0.0,0.0,5,1011.4,0,0,"",91
"2017-05-10 05:33:00",0.1,"-1.2",0.0,0.0,5,1011.4,0,0,"",91
"2017-05-10 05:34:00",0.2,"-1.1",0.0,0.0,5,1011.4,0,0,"",91
"2017-05-10 05:35:00",0.2,"-1.1",0.0,0.0,5,1011.4,0,0,"",91
"2017-05-10 05:36:00",0.1,"-1.2",0.0,0.0,5,1011.4,0,0,"",91
"2017-05-10 05:37:00",0.1,"-1.2",0.0,0.0,7,1011.4,0,0,"",91
"2017-05-10 05:38:00",0.1,"-1.2",0.0,0.0,7,1011.4,0,0,"",91
"2017-05-10 05:39:00",0.1,"-1.2",0.0,0.0,7,1011.3,0,0,"",91
"2017-05-10 05:40:00",0.1,"-1.2",0.0,0.0,7,1011.4,0,0,"",91
"2017-05-10 05:41:00",0.1,"-1.2",0.0,0.0,7,1011.3,0,0,"",91
"2017-05-10 05:42:00",0.1,"-1.2",0.0,0.0,9,1011.3,0,0,"",91
"2017-05-10 05:43:00",0.1,"-1.2",0.0,0.0,9,1011.3,0,0,"",91
"2017-05-10 05:44:00",0.1,"-1.2",0.0,0.0,9,1011.3,0,0,"",91
"2017-05-10 05:45:00",0.0,"-1.3",0.0,0.0,9,1011.2,0,0,"",91
"2017-05-10 05:46:00",0.0,"-1.3",0.0,0.0,11,1011.3,0,0,"",91
"2017-05-10 05:47:00",0.0,"-1.3",0.0,0.0,11,1011.2,0,0,"",91
"2017-05-10 05:48:00",0.0,"-1.3",0.0,0.0,11,1011.2,0,0,"",91
"2017-05-10 05:49:00",0.0,"-1.3",0.0,0.0,11,1011.2,0,0,"",91
"2017-05-10 05:50:00",0.0,"-1.3",0.0,0.0,12,1011.2,0,0,"",91
"2017-05-10 05:51:00",0.0,"-1.3",0.0,0.0,12,1011.2,0,0,"",91
"2017-05-10 05:52:00",0.0,"-1.3",0.0,0.0,12,1011.1,0,0,"",91
"2017-05-10 05:53:00",0.0,"-1.3",0.0,0.0,12,1011.2,0,0,"",91
"2017-05-10 05:54:00","-0.1","-1.4",0.0,0.0,12,1011.1,0,0,"",91
"2017-05-10 05:55:00",0.0,"-1.3",0.0,0.0,14,1011.1,0,0,"",91
"2017-05-10 05:56:00",0.0,"-1.3",0.0,0.0,14,1011.1,0,0,"",91
"2017-05-10 05:57:00","-0.1","-1.4",0.0,0.0,14,1011.1,0,0,"",91
"2017-05-10 05:58:00","-0.1","-1.4",0.0,0.0,14,1011.1,0,0,"",91
"2017-05-10 05:59:00","-0.1","-1.4",0.0,0.0,14,1011.1,0,0,"",91
"2017-05-10 06:00:00","-0.1","-1.4",0.0,0.0,16,1011.1,0,0,"",91
"2017-05-10 06:01:00","-0.1","-1.4",0.0,0.0,16,1011.1,0,0,"",91
"2017-05-10 06:02:00","-0.1","-1.4",0.0,0.0,16,1011.0,0,0,"",91
"2017-05-10 06:03:00","-0.1","-1.4",0.0,0.0,18,1011.0,0,0,"",91
"2017-05-10 06:04:00","-0.1","-1.4",0.0,0.0,18,1011.0,0,0,"",91
"2017-05-10 06:05:00","-0.1","-1.4",0.0,0.0,18,1011.0,0,0,"",91
"2017-05-10 06:06:00","-0.1","-1.4",0.0,0.0,18,1011.0,0,0,"",91
"2017-05-10 06:07:00","-0.1","-1.4",0.0,0.0,19,1010.9,0,0,"",91
"2017-05-10 06:08:00","-0.1","-1.4",0.0,0.0,19,1010.9,0,0,"",91
"2017-05-10 06:09:00","-0.1","-1.4",0.0,0.0,19,1011.0,0,0,"",91
"2017-05-10 06:10:00","-0.1","-1.4",0.0,0.0,19,1010.9,0,0,"",91
"2017-05-10 06:11:00","-0.1","-1.4",0.0,0.0,21,1011.0,0,0,"",91
"2017-05-10 06:12:00","-0.1","-1.4",0.0,0.0,21,1011.0,0,0,"",91
"2017-05-10 06:13:00","-0.1","-1.4",0.0,0.0,21,1011.0,0,0,"",91
"2017-05-10 06:14:00","-0.1","-1.4",0.0,0.0,21,1011.0,0,0,"",91
"2017-05-10 06:15:00","-0.1","-1.4",0.0,0.0,21,1010.9,0,0,"",91
"2017-05-10 06:16:00","-0.1","-1.4",0.0,0.0,21,1010.9,0,0,"",91
"2017-05-10 06:17:00","-0.1","-1.4",0.0,0.0,23,1010.9,0,0,"",91
"2017-05-10 06:18:00","-0.1","-1.4",0.0,0.0,23,1010.9,0,0,"",91
"2017-05-10 06:19:00","-0.1","-1.4",0.0,0.0,23,1010.9,0,0,"",91
"2017-05-10 06:20:00","-0.1","-1.4",0.0,0.0,23,1010.9,0,0,"",91
"2017-05-10 06:21:00","-0.1","-1.4",0.0,0.0,25,1010.9,0,0,"",91
"2017-05-10 06:22:00","-0.1","-1.4",0.0,0.0,25,1010.9,0,0,"",91
"2017-05-10 06:23:00","-0.1","-1.4",0.0,0.0,25,1010.9,0,0,"",91
"2017-05-10 06:24:00","-0.1","-1.4",0.0,0.0,25,1010.9,0,0,"",91
"2017-05-10 06:25:00","-0.1","-1.4",0.0,0.0,25,1010.9,0,0,"",91
"2017-05-10 06:26:00","-0.1","-1.4",0.0,0.0,26,1010.9,0,0,"",91
"2017-05-10 06:27:00","-0.1","-1.4",0.0,0.0,26,1010.8,0,0,"",91
"2017-05-10 06:28:00","-0.1","-1.4",0.0,0.0,26,1010.8,0,0,"",91
"2017-05-10 06:29:00","-0.1","-1.4",0.0,0.0,26,1010.8,0,0,"",91
"2017-05-10 06:30:00","-0.1","-1.4",0.0,0.0,28,1010.8,0,0,"",91
"2017-05-10 06:31:00","-0.1","-1.4",0.0,0.0,28,1010.8,0,0,"",91
"2017-05-10 06:32:00","-0.1","-1.4",0.0,0.0,28,1010.8,0,0,"",91
"2017-05-10 06:33:00","-0.1","-1.4",0.0,0.0,28,1010.8,0,0,"",91
"2017-05-10 06:34:00","-0.1","-1.4",0.0,0.0,28,1010.8,0,0,"",91
"2017-05-10 06:35:00","-0.1","-1.4",0.0,0.0,30,1010.9,0,0,"",91
"2017-05-10 06:36:00","-0.1","-1.4",0.0,0.0,30,1010.8,0,0,"",91
"2017-05-10 06:37:00","-0.1","-1.4",0.0,0.0,30,1010.8,0,0,"",91
"2017-05-10 06:38:00","-0.1","-1.4",0.0,0.0,30,1010.8,0,0,"",91
"2017-05-10 06:39:00","-0.1","-1.4",0.0,0.0,32,1010.8,0,0,"",91
"2017-05-10 06:40:00","-0.1","-1.4",0.0,0.0,32,1010.7,0,0,"",91
"2017-05-10 06:41:00","-0.1","-1.4",0.0,0.0,32,1010.8,0,0,"",91
"2017-05-10 06:42:00","-0.1","-1.4",0.0,0.0,32,1010.7,0,0,"",91
"2017-05-10 06:43:00","-0.1","-1.4",0.0,0.0,32,1010.7,0,0,"",91